Weather History for Shreveport, LA

Change the Weather History Date:

Thursday, October 17, 2013

  Actual Average Record
Temperature  
Mean Temperature 63 °F 66 °F  
Max Temperature 72 °F 78 °F 93 °F (1972)
Min Temperature 53 °F 54 °F 34 °F (1977)
Degree Days  
Heating Degree Days 2 3  
Month to date heating degree days 3 26  
Since 1 July heating degree days 3 32  
Cooling Degree Days 0 4  
Month to date cooling degree days 117 89  
Year to date cooling degree days 2678 2414  
Growing Degree Days 14 (Base 50)    
Moisture  
Dew Point 54 °F    
Average Humidity 71    
Maximum Humidity 97    
Minimum Humidity 44    
Precipitation  
Precipitation T in 0.17 in 2.82 in (1937)
Month to date precipitation 3.90 2.52  
Year to date precipitation 40.17 39.67  
Snow  
Snow 0.00 in - - ()
Month to date snowfall 0.0  
Since 1 July snowfall 0.0  
Since 1 September snowfall 0.0  
Snow Depth 0.00 in    
Sea Level Pressure  
Sea Level Pressure 30.02 in    
Wind  
Wind Speed 5 mph (NNW)    
Max Wind Speed 13 mph    
Max Gust Speed 17 mph    
Visibility 10 miles    
Events      
T = Trace of Precipitation, MM = Missing Value Source: NWS Daily Summary

Daily Weather History Graph

Daily Weather History Graph

Search for Another Location

Airport:

Trip Planner

Search our weather history database for the weather conditions in past years. The results will help you decide how hot, cold, wet, or windy it might be!

Date:

Astronomy

Oct. 17, 2013 Rise Set
Actual Time 7:20 AM CDT 6:39 PM CDT
Civil Twilight 6:55 AM CDT 7:04 PM CDT
Nautical Twilight 6:27 AM CDT 7:33 PM CDT
Astronomical Twilight 5:58 AM CDT 8:01 PM CDT
Moon 5:52 PM CDT (10/17) 5:57 AM CDT (10/17)
Length of Visible Light 12h 08m
Length of Day
11h 19m
Waxing Gibbous, 98% of the Moon is Illuminated
Oct 17
Waxing Gibbous
Oct 18
Full
Oct 26
Last Quarter
Nov 3
New
Nov 9
First Quarter

Hourly Weather History & Observations

Time (CDT) Temp. Dew Point Humidity Pressure Visibility Wind Dir Wind Speed Gust Speed Precip Events Conditions
12:21 AM 60.8 °F 59.0 °F 94% 30.01 in 10.0 mi North 4.6 mph - N/A   Overcast
12:37 AM 60.8 °F 59.0 °F 94% 30.01 in 10.0 mi North 5.8 mph - N/A   Overcast
12:56 AM 61.0 °F 59.0 °F 93% 30.00 in 10.0 mi North 6.9 mph - N/A   Overcast
1:51 AM 60.8 °F 59.0 °F 94% 30.00 in 9.0 mi North 6.9 mph - N/A   Overcast
1:56 AM 61.0 °F 59.0 °F 93% 30.00 in 6.0 mi North 5.8 mph - N/A   Overcast
2:03 AM 60.8 °F 59.0 °F 94% 30.01 in 4.0 mi NNW 6.9 mph - N/A   Overcast
2:56 AM 60.1 °F 59.0 °F 96% 30.00 in 7.0 mi NNW 9.2 mph - 0.00 in   Overcast
3:27 AM 60.8 °F 57.2 °F 88% 30.00 in 10.0 mi NNW 6.9 mph - N/A   Overcast
3:34 AM 60.8 °F 57.2 °F 88% 30.00 in 10.0 mi NNW 8.1 mph - N/A   Overcast
3:43 AM 60.8 °F 57.2 °F 88% 30.00 in 10.0 mi NNW 8.1 mph - N/A   Overcast
3:56 AM 60.1 °F 57.9 °F 93% 29.99 in 10.0 mi NW 8.1 mph - N/A   Overcast
4:10 AM 60.8 °F 57.2 °F 88% 29.99 in 10.0 mi NNW 6.9 mph - N/A   Overcast
4:41 AM 59.0 °F 57.2 °F 94% 30.01 in 10.0 mi NW 8.1 mph - N/A   Overcast
4:56 AM 59.0 °F 55.9 °F 90% 30.01 in 10.0 mi NW 10.4 mph - N/A   Overcast
5:33 AM 59.0 °F 55.4 °F 88% 30.02 in 10.0 mi NNW 5.8 mph - N/A   Overcast
5:56 AM 57.9 °F 55.0 °F 90% 30.01 in 10.0 mi NW 6.9 mph - N/A   Mostly Cloudy
6:14 AM 57.2 °F 55.4 °F 94% 30.03 in 10.0 mi NW 6.9 mph - N/A   Scattered Clouds
6:24 AM 57.2 °F 55.4 °F 94% 30.03 in 10.0 mi NW 8.1 mph - N/A   Mostly Cloudy
6:31 AM 57.2 °F 55.4 °F 94% 30.03 in 10.0 mi NNW 8.1 mph - N/A   Mostly Cloudy
6:41 AM 57.2 °F 55.4 °F 94% 30.04 in 10.0 mi NNW 8.1 mph - N/A   Overcast
6:56 AM 57.0 °F 54.0 °F 89% 30.03 in 10.0 mi NNW 6.9 mph - N/A   Mostly Cloudy
7:16 AM 57.2 °F 53.6 °F 88% 30.04 in 10.0 mi NNW 4.6 mph - N/A   Mostly Cloudy
7:56 AM 57.0 °F 54.0 °F 89% 30.05 in 10.0 mi NNW 4.6 mph - N/A   Mostly Cloudy
8:56 AM 59.0 °F 55.0 °F 87% 30.07 in 10.0 mi North 8.1 mph - N/A   Scattered Clouds
9:56 AM 61.0 °F 53.1 °F 75% 30.09 in 10.0 mi NNE 8.1 mph - N/A   Scattered Clouds
10:56 AM 64.0 °F 51.1 °F 63% 30.09 in 10.0 mi North 10.4 mph - N/A   Scattered Clouds
11:56 AM 66.9 °F 51.1 °F 57% 30.07 in 10.0 mi Variable 6.9 mph - N/A   Scattered Clouds
12:56 PM 68.0 °F 48.9 °F 50% 30.06 in 10.0 mi NW 8.1 mph - N/A   Scattered Clouds
1:56 PM 70.0 °F 50.0 °F 49% 30.03 in 10.0 mi NNW 9.2 mph - N/A   Scattered Clouds
2:56 PM 71.1 °F 48.0 °F 44% 30.01 in 10.0 mi NW 6.9 mph - N/A   Scattered Clouds
3:56 PM 72.0 °F 48.0 °F 43% 29.99 in 10.0 mi NNW 8.1 mph - N/A   Scattered Clouds
4:56 PM 72.0 °F 48.9 °F 44% 29.99 in 10.0 mi NNW 4.6 mph - N/A   Scattered Clouds
5:56 PM 69.1 °F 48.0 °F 47% 29.99 in 10.0 mi WNW 5.8 mph - N/A   Scattered Clouds
6:56 PM 62.1 °F 52.0 °F 70% 29.99 in 10.0 mi Calm Calm - N/A   Scattered Clouds
7:56 PM 60.1 °F 53.1 °F 78% 30.00 in 10.0 mi Calm Calm - N/A   Scattered Clouds
8:56 PM 57.0 °F 53.1 °F 87% 30.01 in 10.0 mi Calm Calm - N/A   Scattered Clouds
9:56 PM 55.9 °F 52.0 °F 87% 30.02 in 10.0 mi Calm Calm - N/A   Scattered Clouds
10:56 PM 55.0 °F 52.0 °F 89% 30.02 in 10.0 mi Calm Calm - N/A   Scattered Clouds
11:56 PM 54.0 °F 51.1 °F 90% 30.01 in 10.0 mi Calm Calm - N/A   Scattered Clouds